Location: Anjeux
(47.8815°N, 6.2076°E)
Time: 18:45:23
(UTC+00:00)

Cosmos 2360 Rocket - Pass Details

Date: 05 March 2021
Orbit: 832 x 846 km, 71.0° (Epoch: 14 April)

Event Time Altitude Azimuth Distance (km) Brightness Sun altitude
Rises 03:11:17 0° 334° (NNW) 3,417 5.4 -29.7°
Reaches altitude 10° 03:13:48 10° 339° (NNW) 2,479 4.7 -29.4°
Maximum altitude 03:19:23 54° 57° (ENE) 1,021 2.8 -28.5°
Drops below altitude 10° 03:24:55 10° 135° (SE) 2,464 4.8 -27.7°
Sets 03:27:25 0° 140° (SE) 3,394 5.6 -27.3°
